Weather History for K42J - February, 2014

Change the Weather History Date:

Tuesday, February 18, 2014

  Actual Average (KGNV) Record (KGNV)
Temperature  
Mean Temperature 58 °F 58 °F  
Max Temperature 75 °F 70 °F 85 °F (1962)
Min Temperature 42 °F 46 °F 18 °F (1900)
Degree Days  
Heating Degree Days 6 8  
Month to date heating degree days 161  
Since 1 July heating degree days 963  
Cooling Degree Days 0 1  
Month to date cooling degree days 14  
Year to date cooling degree days 26  
Growing Degree Days 8 (Base 50)    
Moisture  
Dew Point 49 °F    
Average Humidity 68    
Maximum Humidity 94    
Minimum Humidity 42    
Precipitation  
Precipitation 0.00 in 0.12 in 2.58 in (1940)
Month to date precipitation 2.01  
Year to date precipitation 5.32  
Snow  
Snow 0.00 in 0.00 in 0.00 in ()
Month to date snowfall 0.0  
Since 1 July snowfall 0.0  
Snow Depth -    
Sea Level Pressure  
Sea Level Pressure 30.21 in    
Wind  
Wind Speed 2 mph (SSE)    
Max Wind Speed 9 mph    
Max Gust Speed -    
Visibility 10 miles    
Events      
T = Trace of Precipitation, MM = Missing Value Source: NWS Daily Summary

Daily Weather History Graph

Daily Weather History Graph

Search for Another Location

Airport or City:

Trip Planner

Search our weather history database for the weather conditions in past years. The results will help you decide how hot, cold, wet, or windy it might be!

Date:

Astronomy

Feb. 18, 2014 Rise Set
Actual Time 7:05 AM EST 6:19 PM EST
Civil Twilight 6:40 AM EST 6:43 PM EST
Nautical Twilight 6:12 AM EST 7:11 PM EST
Astronomical Twilight 5:45 AM EST 7:39 PM EST
Moon 9:50 PM EST (2/18) 8:55 AM EST (2/18)
Length of Visible Light 12h 02m
Length of Day
11h 14m
Waning Gibbous, 87% of the Moon is Illuminated
Feb 18
Waning Gibbous
Feb 22
Last Quarter
Mar 1
New
Mar 8
First Quarter
Mar 16
Full

Hourly Weather History & Observations

Time (EST) Temp. Windchill Dew Point Humidity Pressure Visibility Wind Dir Wind Speed Gust Speed Precip Events Conditions
1:15 AM 44.6 °F - 39.2 °F 81% 30.22 in 10.0 mi Calm Calm - N/A   Clear
1:35 AM 44.6 °F - 39.2 °F 81% 30.22 in 10.0 mi Calm Calm - N/A   Clear
1:55 AM 46.4 °F - 39.2 °F 76% 30.21 in 10.0 mi Calm Calm - N/A   Clear
2:55 AM 44.6 °F 43.1 °F 39.2 °F 81% 30.19 in 10.0 mi South 3.5 mph - N/A   Clear
3:15 AM 46.4 °F 45.2 °F 44.6 °F 93% 30.18 in 10.0 mi SSE 3.5 mph - N/A   Clear
3:35 AM 44.6 °F - 41.0 °F 87% 30.18 in 10.0 mi Calm Calm - N/A   Clear
3:55 AM 44.6 °F - 42.8 °F 93% 30.18 in 10.0 mi Calm Calm - N/A   Clear
4:15 AM 42.8 °F - 41.0 °F 93% 30.18 in 10.0 mi Calm Calm - N/A   Clear
4:35 AM 44.6 °F - 41.0 °F 87% 30.18 in 10.0 mi Calm Calm - N/A   Clear
4:55 AM 44.6 °F - 41.0 °F 87% 30.18 in 10.0 mi Calm Calm - N/A   Clear
5:15 AM 44.6 °F - 39.2 °F 81% 30.19 in 10.0 mi Calm Calm - N/A   Clear
5:35 AM 44.6 °F - 41.0 °F 87% 30.19 in 10.0 mi Calm Calm - N/A   Clear
6:15 AM 42.8 °F - 41.0 °F 93% 30.21 in 10.0 mi Calm Calm - N/A   Clear
6:35 AM 42.8 °F - 39.2 °F 87% 30.21 in 10.0 mi Calm Calm - N/A   Clear
6:55 AM 44.6 °F - 39.2 °F 81% 30.21 in 10.0 mi Calm Calm - N/A   Clear
7:15 AM 42.8 °F - 39.2 °F 87% 30.22 in 10.0 mi Calm Calm - N/A   Clear
7:35 AM 44.6 °F - 41.0 °F 87% 30.22 in 10.0 mi Calm Calm - N/A   Clear
7:55 AM 46.4 °F - 44.6 °F 93% 30.23 in 10.0 mi Calm Calm - N/A   Clear
8:15 AM 51.8 °F - 44.6 °F 76% 30.24 in 10.0 mi Calm Calm - N/A   Clear
8:35 AM 53.6 °F - 42.8 °F 67% 30.24 in 10.0 mi South 3.5 mph - N/A   Clear
8:55 AM 55.4 °F - 35.6 °F 47% 30.25 in 10.0 mi South 3.5 mph - N/A   Clear
9:15 AM 59.0 °F - 35.6 °F 42% 30.26 in 10.0 mi Calm Calm - N/A   Clear
9:35 AM 60.8 °F - 37.4 °F 42% 30.26 in 9.0 mi Calm Calm - N/A   Clear
9:55 AM 62.6 °F - 42.8 °F 48% 30.26 in 10.0 mi Calm Calm - N/A   Clear
10:15 AM 64.4 °F - 46.4 °F 52% 30.26 in 10.0 mi Calm Calm - N/A   Clear
10:35 AM 66.2 °F - 46.4 °F 49% 30.26 in 10.0 mi Calm Calm - N/A   Clear
10:55 AM 68.0 °F - 46.4 °F 46% 30.26 in 10.0 mi Calm Calm - N/A   Clear
11:15 AM 69.8 °F - 48.2 °F 46% 30.26 in 10.0 mi Calm Calm - N/A   Clear
11:35 AM 71.6 °F - 51.8 °F 50% 30.26 in 10.0 mi West 3.5 mph - N/A   Clear
11:55 AM 71.6 °F - 53.6 °F 53% 30.25 in 10.0 mi Calm Calm - N/A   Partly Cloudy
12:15 PM 71.6 °F - 53.6 °F 53% 30.24 in 10.0 mi WNW 9.2 mph - N/A   Partly Cloudy
12:35 PM 71.6 °F - 55.4 °F 57% 30.24 in 10.0 mi WNW 8.1 mph - N/A   Scattered Clouds
12:55 PM 73.4 °F - 55.4 °F 53% 30.23 in 10.0 mi NW 3.5 mph - N/A   Scattered Clouds
1:15 PM 73.4 °F - 55.4 °F 53% 30.22 in 9.0 mi NW 5.8 mph - N/A   Mostly Cloudy
1:35 PM 73.4 °F - 53.6 °F 50% 30.21 in 10.0 mi ESE 3.5 mph - N/A   Scattered Clouds
1:55 PM 73.4 °F - 53.6 °F 50% 30.20 in 10.0 mi SW 3.5 mph - N/A   Clear
2:15 PM 73.4 °F - 55.4 °F 53% 30.20 in 10.0 mi WNW 5.8 mph - N/A   Partly Cloudy
2:35 PM 73.4 °F - 53.6 °F 50% 30.19 in 10.0 mi NW 4.6 mph - N/A   Mostly Cloudy
2:55 PM 73.4 °F - 53.6 °F 50% 30.19 in 10.0 mi East 5.8 mph - N/A   Mostly Cloudy
3:15 PM 75.2 °F - 53.6 °F 47% 30.19 in 10.0 mi South 5.8 mph - N/A   Scattered Clouds
3:35 PM 73.4 °F - 53.6 °F 50% 30.18 in 10.0 mi Calm Calm - N/A   Scattered Clouds
3:55 PM 75.2 °F - 53.6 °F 47% 30.18 in 10.0 mi Calm Calm - N/A   Scattered Clouds
4:15 PM 73.4 °F - 53.6 °F 50% 30.18 in 10.0 mi WNW 3.5 mph - N/A   Partly Cloudy
4:35 PM 73.4 °F - 53.6 °F 50% 30.18 in 10.0 mi Calm Calm - N/A   Partly Cloudy
4:55 PM 75.2 °F - 51.8 °F 44% 30.18 in 10.0 mi Calm Calm - N/A   Partly Cloudy
5:15 PM 73.4 °F - 53.6 °F 50% 30.18 in 10.0 mi Calm Calm - N/A   Clear
5:35 PM 73.4 °F - 53.6 °F 50% 30.18 in 10.0 mi Calm Calm - N/A   Scattered Clouds
5:55 PM 73.4 °F - 55.4 °F 53% 30.18 in 10.0 mi Calm Calm - N/A   Scattered Clouds
6:15 PM 71.6 °F - 55.4 °F 57% 30.18 in 10.0 mi Calm Calm - N/A   Clear
6:35 PM 66.2 °F - 57.2 °F 73% 30.18 in 8.0 mi East 6.9 mph - N/A   Clear
6:55 PM 66.2 °F - 53.6 °F 64% 30.19 in 9.0 mi ESE 6.9 mph - N/A   Clear
7:15 PM 66.2 °F - 53.6 °F 64% 30.19 in 10.0 mi East 6.9 mph - N/A   Clear
7:35 PM 66.2 °F - 53.6 °F 64% 30.19 in 10.0 mi ESE 6.9 mph - N/A   Clear
7:55 PM 64.4 °F - 53.6 °F 68% 30.19 in 10.0 mi ESE 6.9 mph - N/A   Clear
8:15 PM 64.4 °F - 53.6 °F 68% 30.19 in 10.0 mi ESE 5.8 mph - N/A   Clear
8:35 PM 62.6 °F - 55.4 °F 77% 30.19 in 10.0 mi SE 4.6 mph - N/A   Clear
8:55 PM 62.6 °F - 55.4 °F 77% 30.19 in 10.0 mi SE 3.5 mph - N/A   Clear
9:15 PM 60.8 °F - 55.4 °F 82% 30.19 in 10.0 mi SSE 4.6 mph - N/A   Clear
9:35 PM 60.8 °F - 55.4 °F 82% 30.20 in 10.0 mi SSE 4.6 mph - N/A   Clear
9:55 PM 60.8 °F - 55.4 °F 82% 30.20 in 10.0 mi SSE 4.6 mph - N/A   Clear
10:15 PM 60.8 °F - 55.4 °F 82% 30.21 in 10.0 mi Calm Calm - N/A   Clear
10:35 PM 57.2 °F - 53.6 °F 88% 30.20 in 10.0 mi Calm Calm - N/A   Clear
10:55 PM 60.8 °F - 55.4 °F 82% 30.20 in 10.0 mi Calm Calm - N/A   Clear
11:15 PM 57.2 °F - 53.6 °F 88% 30.20 in 10.0 mi Calm Calm - N/A   Clear
11:35 PM 57.2 °F - 53.6 °F 88% 30.19 in 10.0 mi Calm Calm - N/A   Clear
11:55 PM 55.4 °F - 53.6 °F 94% 30.18 in 10.0 mi Calm Calm - N/A   Clear